Waarnemingen

Advertentie
Mijn weer
Charleville, Frankrijk (7075): temperatuur & dauwpunt: 17.09.2018 03:00:00 - 23.09.2018 03:00:00 (CEST)Charleville, Frankrijk (7075): temperatuur 5cm: 17.09.2018 03:00:00 - 23.09.2018 03:00:00 (CEST)Charleville, Frankrijk (7075): temperatuur -20cm & temperatuur -100cm: 17.09.2018 03:00:00 - 23.09.2018 03:00:00 (CEST)Charleville, Frankrijk (7075): windsnelheid & windstoten: 17.09.2018 03:00:00 - 23.09.2018 03:00:00 (CEST)Charleville, Frankrijk (7075): windrichting: 17.09.2018 03:00:00 - 23.09.2018 03:00:00 (CEST)Charleville, Frankrijk (7075): luchtdruk: 17.09.2018 03:00:00 - 23.09.2018 03:00:00 (CEST)Charleville, Frankrijk (7075): zicht: 17.09.2018 03:00:00 - 23.09.2018 03:00:00 (CEST)Charleville, Frankrijk (7075): Zonneschijnduur: 17.09.2018 03:00:00 - 23.09.2018 03:00:00 (CEST)Charleville, Frankrijk (7075): neerslag: 17.09.2018 03:00:00 - 23.09.2018 03:00:00 (CEST)
Datum & Tijd tt [°C] td [°C] tt 5cm [°C] tt -20cm [°C] tt -100cm [°C] ff [km/u] ff [kn] fx [km/u] fx [kn] dd ppp [hPa] vv [km] sd [min] rr [mm]
23.09.2018 03:00:00 12,3 11,8 11,7 16,0 16,6 13 7 19 10 O 1013,9 4,2 0 1,2
23.09.2018 02:00:00 11,5 11,0 11,2 16,0 16,7 14 7 21 12 O 1014,8 3,2 0 1,0
23.09.2018 01:00:00 11,1 10,6 11,0 16,0 16,6 13 7 25 14 OZO 1015,7 5 0 0,6
23.09.2018 00:00:00 11,0 10,4 10,9 16,0 16,6 14 7 24 13 OZO 1016,8 9 0 0,2
22.09.2018 23:00:00 10,9 10,3 10,8 16,1 16,7 13 7 21 11 OZO 1017,8 9 0 0,4
22.09.2018 22:00:00 11,1 10,5 10,9 16,1 16,6 9 5 11 6 O 1018,9 4,8 0 1,2
22.09.2018 21:00:00 11,3 10,4 10,9 16,1 16,7 4 2 7 4 Z 1019,8 8 0 0,0
22.09.2018 20:00:00 11,7 9,9 11,0 16,1 16,7 4 2 19 10 NO 1019,5 20 0 0,4
22.09.2018 19:00:00 13,2 8,9 11,3 16,0 16,6 8 4 20 11 WZW 1019,8 19 0 0,0
22.09.2018 18:00:00 13,6 10,0 11,7 16,0 16,7 4 2 13 7 ZW 1020,1 19 0 1,0
22.09.2018 17:00:00 14,8 8,3 14,0 15,9 16,6 7 4 25 14 ZW 1020,4 20 0 0,0
22.09.2018 16:00:00 16,7 5,9 17,4 15,9 16,7 12 6 34 19 WZW 1020,9 20 0 0,0
22.09.2018 15:00:00 16,8 5,7 17,4 15,8 16,7 19 10 34 19 ZW 1021,5 20 0 0,0
22.09.2018 14:00:00 16,5 6,3 17,8 15,7 16,6 16 9 34 18 WZW 1021,9 20 19 0,0
22.09.2018 13:00:00 16,5 7,7 19,5 15,7 16,7 13 7 25 13 ZW 1022,0 20 42 0,0
22.09.2018 12:00:00 15,5 8,2 17,5 15,6 16,6 12 7 24 13 ZZW 1022,6 20 49 0,0
22.09.2018 11:00:00 13,5 7,3 16,8 15,7 16,6 9 5 18 10 ZW 1023,4 20 47 0,0
22.09.2018 10:00:00 11,9 8,0 11,5 15,8 16,7 7 4 11 6 O 1023,5 20 22 0,0
22.09.2018 09:00:00 9,8 7,4 6,9 15,9 16,6 4 2 8 5 OZO 1023,2 20 12 0,0
22.09.2018 08:00:00 7,1 6,4 4,3 16,0 16,7 6 3 8 5 O 1023,5 20 0 0,0
22.09.2018 07:00:00 7,4 6,0 5,5 16,0 16,7 1 1 4 2 NW 1023,6 20 0 0,0
22.09.2018 06:00:00 7,6 5,9 6,0 16,1 16,7 1 1 6 4 ZZO 1022,7 20 0 0,0
22.09.2018 05:00:00 7,3 5,9 5,7 16,2 16,6 5 3 14 8 O 1022,5 20 0 0,0
22.09.2018 04:00:00 9,1 5,3 7,1 16,3 16,7 6 3 17 9 NW 1022,5 20 0 0,0
22.09.2018 03:00:00 9,5 5,7 6,1 16,4 16,6 10 5 13 7 NNW 1022,2 20 0 0,0
22.09.2018 02:00:00 10,1 5,3 8,1 16,4 16,6 5 3 23 12 NNW 1022,2 20 0 0,0
22.09.2018 01:00:00 11,7 5,6 7,2 16,5 16,7 8 4 21 12 WZW 1021,5 20 0 0,0
22.09.2018 00:00:00 11,7 4,7 9,5 16,6 16,7 8 4 29 16 WZW 1021,2 20 0 0,0
21.09.2018 23:00:00 12,5 4,7 10,8 16,7 16,7 15 8 27 15 ZW 1020,4 20 0 0,0
21.09.2018 22:00:00 12,9 4,3 10,6 16,8 16,7 13 7 24 13 ZW 1019,8 20 0 0,0
21.09.2018 21:00:00 13,4 4,0 11,1 16,9 16,7 11 6 24 13 W 1019,1 20 0 0,0
21.09.2018 20:00:00 14,1 4,9 11,9 16,9 16,7 10 5 31 17 WZW 1017,6 19 16 0,0
21.09.2018 19:00:00 15,4 4,7 14,5 16,9 16,7 24 13 47 26 W 1016,6 20 52 0,0
21.09.2018 18:00:00 15,9 4,0 16,1 16,9 16,7 29 16 56 30 W 1016,1 20 34 0,0
21.09.2018 17:00:00 16,8 4,1 17,8 16,9 16,7 29 15 55 30 W 1015,4 20 43 0,0
21.09.2018 16:00:00 17,5 5,7 18,0 16,9 16,7 34 18 59 32 WNW 1014,8 20 39 0,0
21.09.2018 15:00:00 17,1 6,6 17,9 16,9 16,7 24 13 56 30 W 1013,7 20 24 0,0
21.09.2018 14:00:00 16,9 7,8 16,2 16,9 16,7 29 16 54 29 W 1012,7 20 28 0,0
21.09.2018 13:00:00 15,7 9,8 15,5 16,9 16,7 32 17 53 29 WNW 1011,8 20 6 0,0
21.09.2018 12:00:00 15,3 11,3 13,7 16,9 16,6 18 10 34 19 WZW 1010,9 20 1 0,0
21.09.2018 11:00:00 13,7 10,3 12,8 17,0 16,7 20 11 50 27 W 1010,6 20 0 1,0
21.09.2018 10:00:00 15,8 14,8 15,2 17,0 16,7 13 7 32 18 ZW 1008,8 6 0 4,0
21.09.2018 09:00:00 17,5 12,8 15,4 17,0 16,6 13 7 32 17 Z 1007,8 20 0 0,0
21.09.2018 08:00:00 17,9 11,9 17,3 17,0 16,7 14 7 40 22 ZZW 1007,9 20 0 0,0
21.09.2018 07:00:00 18,1 11,4 16,9 17,1 16,7 16 8 35 19 ZZW 1008,0 20 0 0,0
21.09.2018 06:00:00 18,1 11,4 16,6 17,1 16,7 13 7 27 15 Z 1007,9 20 0 0,0
21.09.2018 05:00:00 18,1 12,1 14,9 17,2 16,7 10 5 19 10 Z 1008,3 20 0 0,0
21.09.2018 04:00:00 17,0 11,7 12,6 17,3 16,7 9 5 24 13 ZZO 1009,3 20 0 0,0
21.09.2018 03:00:00 13,4 11,8 10,6 17,4 16,7 3 2 8 5 OZO 1010,4 19 0 0,0
21.09.2018 02:00:00 12,2 11,4 8,4 17,4 16,6 2 1 8 5 WNW 1010,9 20 0 0,0
21.09.2018 01:00:00 11,9 10,6 8,6 17,5 16,7 3 2 5 3 O 1011,5 20 0 0,0
21.09.2018 00:00:00 12,8 11,5 9,2 17,6 16,7 4 2 11 6 ZZO 1012,2 20 0 0,0
20.09.2018 23:00:00 12,4 11,0 10,3 17,6 16,7 5 3 9 5 ZO 1012,6 20 0 0,0
20.09.2018 22:00:00 14,4 12,1 11,6 17,6 16,7 4 2 5 3 O 1013,2 20 0 0,0
20.09.2018 21:00:00 15,1 11,9 11,3 17,6 16,7 1 1 9 5 NO 1013,9 20 0 0,0
20.09.2018 20:00:00 18,2 12,0 14,2 17,5 16,7 6 3 21 12 OZO 1014,0 15 5 0,0
20.09.2018 19:00:00 22,5 12,1 21,5 17,4 16,7 11 6 32 17 Z 1014,3 20 28 0,0
20.09.2018 18:00:00 23,6 12,6 23,4 17,2 16,7 16 8 34 18 Z 1014,9 20 42 0,0
20.09.2018 17:00:00 24,4 13,0 26,8 17,1 16,7 19 10 37 20 Z 1015,5 19 60 0,0
20.09.2018 16:00:00 24,5 12,8 27,2 16,9 16,7 16 9 36 19 Z 1016,4 20 60 0,0
20.09.2018 15:00:00 24,3 13,5 28,7 16,8 16,7 14 8 32 18 ZZW 1017,1 20 60 0,0
20.09.2018 14:00:00 23,4 13,0 26,4 16,7 16,7 18 10 37 20 ZZW 1018,1 20 50 0,0
20.09.2018 13:00:00 22,7 13,5 23,9 16,6 16,7 12 6 29 16 ZZW 1018,6 20 46 0,0
20.09.2018 12:00:00 20,5 13,5 23,6 16,6 16,7 14 8 31 17 ZZW 1019,2 20 55 0,0
20.09.2018 11:00:00 20,0 13,7 18,8 16,7 16,7 10 5 18 10 ZZW 1019,5 20 45 0,0
20.09.2018 10:00:00 15,2 13,7 13,6 16,8 16,7 5 3 9 5 OZO 1019,9 18 5 0,0
20.09.2018 09:00:00 12,1 11,8 9,8 16,9 16,7 1 0 4 2 NNW 1020,0 17 5 0,0
20.09.2018 08:00:00 9,1 8,8 5,4 17,0 16,7 1 1 5 3 WNW 1020,3 20 0 0,0
20.09.2018 07:00:00 7,4 7,0 4,8 17,1 16,7 1 0 4 2 O 1020,1 0,3 0 0,0
20.09.2018 06:00:00 8,0 7,6 5,3 17,2 16,7 2 1 6 3 WNW 1020,3 20 0 0,0
20.09.2018 05:00:00 8,3 7,9 5,2 17,3 16,7 1 1 3 1 ZZO 1020,0 0,7 0 0,0
20.09.2018 04:00:00 8,8 8,2 5,4 17,4 16,7 0 0 3 1 NNW 1020,0 0,4 0 0,0
20.09.2018 03:00:00 9,8 9,2 5,9 17,5 16,7 1 1 2 1 W 1020,0 17 0 0,0
20.09.2018 02:00:00 10,1 9,2 7,5 17,5 16,7 3 1 3 2 ZO 1020,0 9 0 0,0
20.09.2018 01:00:00 11,0 9,9 8,1 17,6 16,7 1 1 4 2 ZZO 1020,3 1,7 0 0,0
20.09.2018 00:00:00 12,0 11,1 8,9 17,7 16,7 1 1 3 2 ZO 1020,5 14 0 0,0
19.09.2018 23:00:00 12,1 10,5 9,5 17,7 16,7 0 0 7 4 Z 1020,4 19 0 0,0
19.09.2018 22:00:00 13,4 10,9 10,3 17,7 16,7 3 2 5 3 OZO 1020,0 20 0 0,0
19.09.2018 21:00:00 15,8 11,8 12,2 17,7 16,7 4 2 14 7 O 1019,5 20 0 0,0
19.09.2018 20:00:00 21,4 12,3 16,4 17,6 16,7 4 2 24 13 WZW 1018,9 20 12 0,0
19.09.2018 19:00:00 23,7 12,7 22,6 17,5 16,7 12 7 37 20 WZW 1018,4 20 60 0,0
19.09.2018 18:00:00 24,6 12,9 25,4 17,3 16,7 17 9 35 19 ZW 1018,1 20 60 0,0
19.09.2018 17:00:00 25,5 13,4 28,1 17,2 16,7 16 8 41 22 ZZW 1018,0 20 60 0,0
19.09.2018 16:00:00 25,3 13,5 29,2 17,1 16,7 20 11 40 22 ZW 1018,2 20 60 0,0
19.09.2018 15:00:00 25,2 13,7 27,5 16,9 16,7 16 8 43 23 ZW 1018,4 20 48 0,0
19.09.2018 14:00:00 25,3 14,4 25,3 16,8 16,7 17 9 49 26 ZW 1018,7 20 36 0,0
19.09.2018 13:00:00 24,2 15,7 24,9 16,8 16,8 17 9 35 19 Z 1018,8 19 30 0,0
19.09.2018 12:00:00 23,1 15,2 26,9 16,7 16,8 19 11 32 18 ZZW 1018,9 20 58 0,0
19.09.2018 11:00:00 21,8 15,9 21,4 16,7 16,8 10 6 22 12 ZZW 1018,8 20 49 0,0
19.09.2018 10:00:00 17,8 15,6 17,3 16,8 16,8 9 5 12 6 O 1019,1 17 7 0,0
19.09.2018 09:00:00 16,2 14,9 15,1 16,8 16,8 6 3 10 6 O 1018,9 15 22 0,0
19.09.2018 08:00:00 15,0 14,4 13,9 16,9 16,8 8 5 13 7 OZO 1018,6 11 7 0,0
19.09.2018 07:00:00 14,2 13,9 11,8 16,9 16,8 6 3 9 5 ZO 1018,3 13 0 0,0
19.09.2018 06:00:00 12,1 11,6 8,5 17,0 16,8 3 2 7 4 O 1018,9 10 0 0,0
19.09.2018 05:00:00 11,1 10,6 8,5 17,1 16,8 5 3 8 4 O 1018,6 0,9 0 0,0
19.09.2018 04:00:00 11,5 11,0 10,0 17,2 16,8 2 1 3 2 ZO 1018,6 2,3 0 0,0
19.09.2018 03:00:00 11,1 10,5 8,5 17,2 16,8 1 1 6 3 ZZW 1018,7 16 0 0,0
19.09.2018 02:00:00 11,4 10,8 8,4 17,3 16,8 2 1 4 2 ONO 1018,4 17 0 0,0
19.09.2018 01:00:00 11,5 10,4 9,6 17,3 16,8 1 1 9 5 ZO 1018,0 0,8 0 0,0
19.09.2018 00:00:00 13,2 12,3 9,5 17,4 16,8 3 2 6 3 WNW 1017,8 20 0 0,0
18.09.2018 23:00:00 13,9 12,6 11,1 17,4 16,8 2 1 5 3 OZO 1017,6 19 0 0,0
18.09.2018 22:00:00 15,4 13,6 12,8 17,3 16,8 3 1 5 3 ONO 1017,2 20 0 0,0
18.09.2018 21:00:00 16,5 14,0 14,6 17,3 16,8 4 2 14 8 OZO 1016,7 20 0 0,0
18.09.2018 20:00:00 21,6 14,5 19,9 17,2 16,8 6 3 27 14 ZZW 1015,9 10 0 0,0
18.09.2018 19:00:00 23,0 14,8 22,5 17,0 16,8 14 7 35 19 WZW 1015,3 20 40 0,0
18.09.2018 18:00:00 23,6 14,3 23,4 16,9 16,8 15 8 37 20 WZW 1015,2 20 15 0,0
18.09.2018 17:00:00 25,5 15,2 26,4 16,7 16,8 15 8 35 19 ZW 1014,7 20 31 0,0
18.09.2018 16:00:00 26,6 15,6 28,1 16,6 16,8 16 9 40 22 ZW 1014,5 20 56 0,0
18.09.2018 15:00:00 25,7 14,8 22,6 16,4 16,8 11 6 35 19 ZZW 1014,8 20 19 0,0
18.09.2018 14:00:00 27,0 12,6 27,4 16,2 16,8 18 10 31 17 ZZW 1014,4 20 36 0,0
18.09.2018 13:00:00 26,5 11,4 27,5 16,2 16,8 14 8 30 16 ZZW 1014,1 20 39 0,0
18.09.2018 12:00:00 25,8 13,3 27,0 16,1 16,8 8 4 29 16 ZZW 1014,3 20 52 0,0
18.09.2018 11:00:00 23,6 13,5 22,3 16,1 16,8 5 3 15 8 Z 1014,0 20 50 0,0
18.09.2018 10:00:00 19,6 13,3 19,3 16,2 16,8 6 4 12 6 OZO 1014,6 20 60 0,0
18.09.2018 09:00:00 14,6 12,3 9,1 16,3 16,8 4 2 8 4 O 1014,4 19 60 0,0
18.09.2018 08:00:00 8,6 8,2 5,7 16,4 16,8 4 2 5 3 O 1014,5 14 15 0,0
18.09.2018 07:00:00 7,8 7,4 5,8 16,5 16,9 2 1 4 2 ZZO 1014,2 17 0 0,0
18.09.2018 06:00:00 7,2 6,8 5,3 16,6 16,8 4 2 7 4 ZO 1014,1 3,6 0 0,0
18.09.2018 05:00:00 7,3 6,7 4,9 16,7 16,8 2 1 5 3 O 1014,4 20 0 0,0
18.09.2018 04:00:00 7,8 7,0 5,2 16,8 16,8 1 1 3 1 ZZO 1014,5 5 0 0,0
18.09.2018 03:00:00 8,7 8,1 5,1 16,9 16,8 1 1 4 2 Z 1014,5 20 0 0,0
18.09.2018 02:00:00 8,2 7,6 5,4 17,0 16,8 1 1 5 3 ZO 1014,8 20 0 0,0
18.09.2018 01:00:00 8,8 7,9 5,4 17,1 16,9 4 2 6 3 O 1015,1 20 0 0,0
18.09.2018 00:00:00 9,3 8,1 6,1 17,1 16,9 2 1 4 2 OZO 1015,4 20 0 0,0
17.09.2018 23:00:00 10,1 8,4 6,3 17,2 16,9 1 1 3 2 ZZO 1015,7 20 0 0,0
17.09.2018 22:00:00 11,0 8,6 6,6 17,2 16,9 3 1 4 2 ZO 1015,7 20 0 0,0
17.09.2018 21:00:00 12,8 9,6 7,6 17,1 16,9 3 1 7 4 OZO 1015,8 20 0 0,0
17.09.2018 20:00:00 15,5 10,7 12,1 17,0 16,9 5 3 7 4 O 1015,4 20 27 0,0
17.09.2018 19:00:00 21,3 11,3 19,1 16,9 16,8 4 2 14 7 O 1015,3 6 8 0,0
17.09.2018 18:00:00 24,7 8,2 24,6 16,7 16,9 10 5 20 11 ZO 1015,4 19 53 0,0
17.09.2018 17:00:00 26,3 7,3 28,4 16,6 16,9 10 6 20 11 ZO 1016,1 19 60 0,0
17.09.2018 16:00:00 27,2 7,6 29,9 16,3 16,8 7 4 19 10 ZZW 1016,8 20 55 0,0
17.09.2018 15:00:00 25,8 6,9 30,5 16,2 16,9 10 6 21 11 ZO 1017,8 20 60 0,0
17.09.2018 14:00:00 25,3 8,3 30,6 16,0 16,9 7 4 17 9 Z 1018,5 20 60 0,0
17.09.2018 13:00:00 22,9 10,3 28,0 16,0 16,9 9 5 18 10 ZO 1019,3 20 60 0,0
17.09.2018 12:00:00 20,7 11,1 24,7 16,0 16,9 9 5 14 8 ZO 1020,0 20 60 0,0
17.09.2018 11:00:00 17,2 10,6 20,7 16,0 16,9 8 4 15 8 OZO 1020,7 20 60 0,0
17.09.2018 10:00:00 13,4 9,4 13,2 16,1 16,9 5 3 10 6 ZO 1021,3 19 60 0,0
17.09.2018 09:00:00 8,8 8,3 4,2 16,3 16,9 2 1 7 4 NO 1021,6 18 60 0,0
17.09.2018 08:00:00 3,8 3,4 0,4 16,4 16,9 2 1 7 4 O 1021,5 1,6 16 0,0
17.09.2018 07:00:00 3,5 2,9 0,6 16,5 16,9 2 1 5 3 NW 1022,1 7 0 0,0
17.09.2018 06:00:00 4,2 3,8 0,7 16,6 16,9 4 2 6 3 WNW 1022,2 20 0 0,0
17.09.2018 05:00:00 4,4 4,0 1,2 16,8 16,9 1 1 3 1 WNW 1021,7 1,7 0 0,0
17.09.2018 04:00:00 4,1 3,5 1,4 16,9 16,9 1 0 4 2 OZO 1022,0 0,3 0 0,0
17.09.2018 03:00:00 5,4 4,7 1,8 17,0 16,9 1 1 7 4 Z 1021,8 20 0 0,0

tt = temperatuur
td = dauwpunt
tt 5cm = temperatuur 5cm
tt -20cm = temperatuur -20cm
tt -100cm = temperatuur -100cm
ff = windsnelheid
fx = windstoten
dd = windrichting
ppp = luchtdruk
vv = zicht
sd = Zonneschijnduur
rr = neerslag

Weerstations in de omgeving